Location: Unspecified
(0.0000°N, 0.0000°E)
Time: 00:56:34
(UTC+01:00)

CZ-4B R/B - Visible Passes

Search period start: 23 November 2017 00:00
Search period end: 03 December 2017 00:00
Orbit: 488 x 655 km, 97.8° (Epoch: 22 November)

Date Brightness Start Highest point End Pass type
(mag) Time Alt. Az. Time Alt. Az. Time Alt. Az.
23 Nov 5.7 04:27:05 13° S 04:27:05 13° S 04:27:35 10° S visible
24 Nov 5.7 04:29:26 13° S 04:29:26 13° S 04:29:59 10° S visible
25 Nov 5.7 04:31:47 13° S 04:31:47 13° S 04:32:20 10° S visible
26 Nov 5.6 04:34:08 13° S 04:34:08 13° S 04:34:42 10° S visible
27 Nov 5.6 04:36:30 13° S 04:36:30 13° S 04:37:03 10° S visible
28 Nov 5.6 04:38:52 13° S 04:38:52 13° S 04:39:23 10° S visible
29 Nov 5.6 04:41:14 13° SSW 04:41:14 13° SSW 04:41:43 10° SSW visible
30 Nov 5.6 04:43:37 13° SSW 04:43:37 13° SSW 04:44:03 10° SSW visible
01 Dec 5.6 04:46:00 12° SSW 04:46:00 12° SSW 04:46:22 10° SSW visible
02 Dec 5.6 04:48:22 12° SSW 04:48:22 12° SSW 04:48:40 10° SSW visible
